Date String (YYYY-MM-DD hh:mm:ss) UTC,Instrument flags,Ambient pressure (hPa),Sample flow (lpm),Bypass flow (lpm),Sample temperature (°C),Ambient temperature (°C),ASC tube jacket temperature (°C),LED temperature (°C),Box temperature (°C),Sample RH (%),Span deviation,Mass concentration (μg/m³),Mass concentration (μg/m³),Mass concentration (μg/m³)
DateTimeUTC,F1_M11,P_M11,Q1_M11,Q2_M11,T1_M11,T2_M11,T3_M11,T4_M11,T5_M11,U1_M11,ZSPAN_M11,X0_M11,X2_M11,X1_M11
2022-11-12 05:00:00,,0827.6,5.00,0.00,22.3,20.8,00.0,31.2,24.0,10.1,0001.0,0015.80,0008.76,0007.92
2022-11-12 05:01:00,,0827.6,5.01,0.00,22.3,20.7,00.0,31.2,24.0,10.1,0001.3,0015.99,0008.80,0007.92
2022-11-12 05:02:00,,0827.6,5.00,0.00,22.2,20.7,00.0,31.2,24.0,10.1,0001.0,0015.72,0008.84,0007.92
2022-11-12 05:03:00,,0827.7,4.99,0.00,22.2,20.6,00.0,31.2,24.0,10.1,0000.6,0015.60,0008.87,0007.93
2022-11-12 05:04:00,,0827.7,5.01,0.00,22.2,21.1,00.0,31.1,24.1,10.1,0001.0,0015.62,0008.89,0007.94
2022-11-12 05:05:00,,0827.7,4.99,0.00,22.3,21.9,00.0,31.1,24.3,10.0,0001.6,0015.99,0008.93,0007.93
2022-11-12 05:06:00,,0827.7,5.01,0.00,22.4,22.2,00.0,31.1,24.4,09.9,0002.6,0016.70,0008.96,0007.92
2022-11-12 05:07:00,,0827.7,5.00,0.00,22.4,21.9,00.0,31.2,24.4,09.9,0002.0,0017.08,0008.98,0007.93
2022-11-12 05:08:00,,0827.7,4.99,0.00,22.4,21.6,00.0,31.2,24.3,09.9,0001.6,0017.46,0008.98,0007.93
2022-11-12 05:09:00,,0827.7,5.01,0.00,22.4,21.4,00.0,31.2,24.3,09.9,0001.8,0017.57,0009.02,0007.92
2022-11-12 05:10:00,,0827.7,5.01,0.00,22.4,21.2,00.0,31.2,24.2,10.0,0001.9,0018.44,0009.06,0007.92
2022-11-12 05:11:00,,0827.7,4.99,0.00,22.3,21.1,00.0,31.2,24.1,10.0,0001.6,0020.09,0009.07,0007.94
2022-11-12 05:12:00,,0827.7,5.00,0.00,22.3,20.9,00.0,31.2,24.1,10.0,0001.5,0019.45,0009.05,0007.94
2022-11-12 05:13:00,,0827.7,5.00,0.00,22.3,20.8,00.0,31.2,24.1,10.0,0001.2,0019.42,0009.05,0007.92
2022-11-12 05:14:00,,0827.8,4.99,0.00,22.3,20.8,00.0,31.2,24.0,10.0,0001.3,0019.42,0008.98,0007.89
2022-11-12 05:15:00,,0827.7,5.01,0.00,22.2,20.7,00.0,31.2,24.0,10.0,0001.7,0019.24,0008.91,0007.85
2022-11-12 05:16:00,,0827.7,5.00,0.00,22.2,20.7,00.0,31.2,24.0,10.0,0001.4,0018.88,0008.81,0007.82
2022-11-12 05:17:00,,0827.7,5.00,0.00,22.2,20.7,00.0,31.2,24.0,10.0,0000.6,0018.13,0008.78,0007.80
2022-11-12 05:18:00,,0827.6,5.00,0.00,22.2,21.2,00.0,31.1,24.1,10.0,0000.2,0017.67,0008.74,0007.78
2022-11-12 05:19:00,,0827.6,5.00,0.00,22.3,22.1,00.0,31.1,24.3,09.9,0000.6,0017.47,0008.76,0007.74
2022-11-12 05:20:00,,0827.6,4.99,0.00,22.4,22.2,00.0,31.1,24.4,09.9,0001.0,0018.36,0008.74,0007.69
2022-11-12 05:21:00,,0827.6,5.01,0.00,22.4,21.9,00.0,31.2,24.4,09.9,0000.7,0017.93,0008.72,0007.67
2022-11-12 05:22:00,,0827.6,5.00,0.00,22.4,21.6,00.0,31.2,24.3,09.9,0000.5,0016.40,0008.69,0007.63
2022-11-12 05:23:00,,0827.6,5.00,0.00,22.4,21.4,00.0,31.2,24.2,09.9,0000.9,0016.16,0008.60,0007.59
2022-11-12 05:24:00,,0827.6,4.99,0.00,22.4,21.2,00.0,31.2,24.2,09.9,0001.3,0016.25,0008.57,0007.57
2022-11-12 05:25:00,,0827.6,5.00,0.00,22.4,21.0,00.0,31.2,24.2,09.9,0001.5,0017.45,0008.60,0007.57
2022-11-12 05:26:00,,0827.7,5.01,0.00,22.3,20.9,00.0,31.2,24.1,09.9,0001.6,0017.39,0008.58,0007.56
2022-11-12 05:27:00,,0827.7,4.99,0.00,22.3,20.8,00.0,31.2,24.1,09.9,0001.5,0017.73,0008.68,0007.56
2022-11-12 05:28:00,,0827.7,5.00,0.00,22.3,20.7,00.0,31.2,24.0,09.9,0001.6,0019.65,0008.69,0007.57
2022-11-12 05:29:00,,0827.6,5.01,0.00,22.2,20.7,00.0,31.2,24.0,09.9,0001.5,0020.50,0008.69,0007.59
2022-11-12 05:30:00,,0827.6,5.00,0.00,22.2,20.7,00.0,31.1,24.0,09.9,0000.8,0019.96,0008.70,0007.61
2022-11-12 05:31:00,,0827.5,4.99,0.00,22.2,20.7,00.0,31.1,24.0,09.9,0001.0,0019.62,0008.73,0007.63
2022-11-12 05:32:00,,0827.6,5.01,0.00,22.3,21.4,00.0,31.1,24.2,09.9,0001.6,0019.78,0008.69,0007.63
2022-11-12 05:33:00,,0827.6,4.99,0.00,22.3,22.2,00.0,31.1,24.4,09.9,0002.4,0019.59,0008.66,0007.64
2022-11-12 05:34:00,,0827.7,5.01,0.00,22.4,22.2,00.0,31.1,24.4,09.8,0002.2,0020.22,0008.71,0007.65
2022-11-12 05:35:00,,0827.7,5.00,0.00,22.4,21.9,00.0,31.2,24.4,09.8,0002.7,0019.92,0008.68,0007.65
2022-11-12 05:36:00,,0827.7,5.00,0.00,22.4,21.6,00.0,31.2,24.3,09.8,0002.2,0018.61,0008.66,0007.66
2022-11-12 05:37:00,,0827.7,5.00,0.00,22.4,21.4,00.0,31.2,24.3,09.8,0002.1,0018.53,0008.66,0007.66
2022-11-12 05:38:00,,0827.7,5.00,0.00,22.4,21.2,00.0,31.2,24.2,09.8,0002.2,0017.89,0008.60,0007.65
2022-11-12 05:39:00,,0827.7,5.00,0.00,22.3,21.0,00.0,31.2,24.2,09.8,0002.3,0015.70,0008.58,0007.62
2022-11-12 05:40:00,,0827.6,5.00,0.00,22.3,20.9,00.0,31.2,24.1,09.8,0003.0,0014.89,0008.53,0007.59
2022-11-12 05:41:00,,0827.7,4.99,0.00,22.3,20.8,00.0,31.2,24.1,09.8,0002.9,0015.02,0008.47,0007.56
2022-11-12 05:42:00,,0827.6,5.00,0.00,22.3,20.8,00.0,31.2,24.1,09.8,0001.9,0014.48,0008.39,0007.53
2022-11-12 05:43:00,,0827.7,5.00,0.00,22.3,20.7,00.0,31.2,24.1,09.8,0001.2,0014.06,0008.39,0007.49
2022-11-12 05:44:00,,0827.7,5.01,0.00,22.2,20.7,00.0,31.2,24.0,09.8,0000.3,0015.41,0008.39,0007.46
2022-11-12 05:45:00,,0827.7,4.99,0.00,22.2,20.7,00.0,31.1,24.0,09.8,0000.6,0015.72,0008.35,0007.44
2022-11-12 05:46:00,,0827.7,5.00,0.00,22.2,20.7,00.0,31.1,24.0,09.9,0000.5,0015.85,0008.33,0007.41
2022-11-12 05:47:00,,0827.7,5.01,0.00,22.3,21.4,00.0,31.1,24.2,09.8,0001.3,0016.54,0008.30,0007.39
2022-11-12 05:48:00,,0827.7,5.00,0.00,22.4,22.3,00.0,31.1,24.4,09.8,0000.8,0016.55,0008.29,0007.38
2022-11-12 05:49:00,,0827.7,5.01,0.00,22.4,22.2,00.0,31.1,24.4,09.7,0000.7,0016.60,0008.27,0007.36
2022-11-12 05:50:00,,0827.7,4.98,0.00,22.4,21.9,00.0,31.2,24.4,09.7,0000.3,0017.56,0008.21,0007.35
2022-11-12 05:51:00,,0827.7,5.01,0.00,22.4,21.5,00.0,31.2,24.3,09.7,0000.3,0017.69,0008.23,0007.35
2022-11-12 05:52:00,,0827.7,5.00,0.00,22.4,21.3,00.0,31.2,24.3,09.7,0000.6,0017.40,0008.22,0007.34
2022-11-12 05:53:00,,0827.7,5.00,0.00,22.4,21.2,00.0,31.2,24.2,09.8,0001.0,0017.54,0008.27,0007.33
2022-11-12 05:54:00,,0827.7,5.00,0.00,22.4,21.0,00.0,31.2,24.2,09.8,0000.7,0017.59,0008.33,0007.34
2022-11-12 05:55:00,,0827.7,4.99,0.00,22.3,20.9,00.0,31.2,24.1,09.7,0000.9,0016.99,0008.36,0007.34
2022-11-12 05:56:00,,0827.7,4.99,0.00,22.3,20.9,00.0,31.2,24.1,09.8,0000.9,0016.30,0008.37,0007.33
2022-11-12 05:57:00,,0827.6,5.01,0.00,22.3,20.8,00.0,31.2,24.1,09.8,0000.4,0016.14,0008.39,0007.34
2022-11-12 05:58:00,,0827.6,4.99,0.00,22.3,20.8,00.0,31.2,24.0,09.8,-000.1,0015.77,0008.40,0007.33
2022-11-12 05:59:00,,0827.6,5.01,0.00,22.2,20.7,00.0,31.2,24.0,09.8,0000.2,0016.20,0008.41,0007.32
